Torna al catalogo

STARLINK-35906

AttivoComunicazioniVLEO
NORAD 67112·PAYLOAD·🇺🇸 United States

Lanciato Dec 15, 2025 da Cape Canaveral Space Force Station

Loading…

Prossimi Passaggi (prossime 24 ore)

TLE

AggiornatoSource: CelesTrak SupGP

Epoca: Sep 14, 2026, 21:23 UTC

1 67112C 25299L   26257.89145833 -.00007603  00000+0 -27531-3 0  2572
2 67112  43.0018 180.7423 0001288 265.5048 292.9442 15.27590655    17

Traccia STARLINK-35906 in tempo reale con AllMySat

Download on the App Store